Weather History for Riverside, CA

Change the Weather History Date:

Wednesday, January 29, 2014

  Actual Average Record
Temperature  
Mean Temperature 62 °F 55 °F  
Max Temperature 79 °F 66 °F 90 °F (2003)
Min Temperature 45 °F 44 °F 25 °F (1948)
Degree Days  
Heating Degree Days 3 10  
Month to date heating degree days 116 294  
Since 1 July heating degree days 504 820  
Cooling Degree Days 0 0  
Month to date cooling degree days 16 0  
Year to date cooling degree days 16 0  
Growing Degree Days 12 (Base 50)    
Moisture  
Dew Point 41 °F    
Average Humidity 51    
Maximum Humidity 83    
Minimum Humidity 18    
Precipitation  
Precipitation 0.00 in 0.08 in 2.01 in (1915)
Month to date precipitation 0.00 2.77  
Year to date precipitation 0.00 2.77  
Since 1 July precipitation 1.15  
Snow  
Snow 0.00 in - - ()
Month to date snowfall 0.0  
Year to date snowfall 0.0  
Since 1 July snowfall 0.0  
Snow Depth 0.00 in    
Sea Level Pressure  
Sea Level Pressure 30.00 in    
Wind  
Wind Speed 3 mph (NW)    
Max Wind Speed 8 mph    
Max Gust Speed -    
Visibility 8 miles    
Events      
T = Trace of Precipitation, MM = Missing Value Source: NWS Daily Summary

Daily Weather History Graph

Daily Weather History Graph

Search for Another Location

Airport:

Trip Planner

Search our weather history database for the weather conditions in past years. The results will help you decide how hot, cold, wet, or windy it might be!

Date:

Astronomy

Jan. 29, 2014 Rise Set
Actual Time 6:48 AM PST 5:17 PM PST
Civil Twilight 6:22 AM PST 5:44 PM PST
Nautical Twilight 5:52 AM PST 6:14 PM PST
Astronomical Twilight 5:22 AM PST 6:43 PM PST
Moon 5:29 AM PST (1/29) 4:22 PM PST (1/29)
Length of Visible Light 11h 21m
Length of Day
10h 28m
Waning Crescent, 2% of the Moon is Illuminated
Jan 29
Waning Crescent
Jan 30
New
Feb 6
First Quarter
Feb 14
Full
Feb 22
Last Quarter

Hourly Weather History & Observations

Time (PST) Temp. Dew Point Humidity Pressure Visibility Wind Dir Wind Speed Gust Speed Precip Events Conditions
12:53 AM 52.0 °F 46.0 °F 80% 30.06 in 6.0 mi Calm Calm - N/A   Haze
1:53 AM 53.1 °F 43.0 °F 69% 30.06 in 8.0 mi NE 3.5 mph - N/A   Clear
2:53 AM 50.0 °F 43.0 °F 77% 30.05 in 7.0 mi Calm Calm - N/A   Clear
3:53 AM 48.9 °F 43.0 °F 80% 30.04 in 6.0 mi Calm Calm - N/A   Haze
4:53 AM 48.9 °F 37.9 °F 66% 30.03 in 9.0 mi NNE 8.1 mph - N/A   Clear
5:53 AM 46.9 °F 39.0 °F 74% 30.04 in 8.0 mi Calm Calm - N/A   Clear
6:53 AM 46.9 °F 37.9 °F 71% 30.05 in 8.0 mi East 3.5 mph - N/A   Scattered Clouds
7:53 AM 53.1 °F 39.0 °F 59% 30.05 in 8.0 mi NE 3.5 mph - N/A   Clear
8:53 AM 57.9 °F 37.9 °F 47% 30.05 in 10.0 mi NNE 3.5 mph - N/A   Scattered Clouds
9:53 AM 64.0 °F 37.0 °F 37% 30.05 in 9.0 mi Calm Calm - N/A   Scattered Clouds
11:53 AM - - N/A% - - North - - N/A   Unknown
12:53 PM 77.0 °F 30.0 °F 18% 29.99 in 10.0 mi West 4.6 mph - N/A   Mostly Cloudy
1:53 PM 79.0 °F 33.1 °F 19% 29.97 in 9.0 mi WNW 3.5 mph - N/A   Clear
2:53 PM 79.0 °F 35.1 °F 20% 29.94 in 8.0 mi Variable 5.8 mph - N/A   Clear
3:53 PM 79.0 °F 28.0 °F 15% 29.94 in 10.0 mi West 4.6 mph - N/A   Clear
4:53 PM 75.0 °F 39.0 °F 27% 29.94 in 10.0 mi West 6.9 mph - N/A   Clear
5:53 PM 69.1 °F 46.9 °F 45% 29.94 in 8.0 mi West 4.6 mph - N/A   Clear
6:53 PM 66.0 °F 48.0 °F 52% 29.95 in 7.0 mi West 4.6 mph - N/A   Clear
7:53 PM 64.0 °F 48.9 °F 58% 29.95 in 6.0 mi WSW 3.5 mph - N/A   Haze
8:53 PM 62.1 °F 46.0 °F 56% 29.97 in 8.0 mi Calm Calm - N/A   Clear
9:53 PM 60.1 °F 45.0 °F 57% 29.97 in 9.0 mi Calm Calm - N/A   Clear
10:53 PM 57.0 °F 43.0 °F 59% 29.96 in 9.0 mi ESE 3.5 mph - N/A   Clear
11:53 PM 57.0 °F 45.0 °F 64% 29.96 in 7.0 mi South 3.5 mph - N/A   Clear